STARLINK-37689, 69308

Orbit data source: Space-Track

STARLINK-37689, 69308 is a payload satellite owned by SpaceX/Seattle (US) in SSO that was launched on Sat, 30 May 2026 UTC via an FALCON 9 launch vehicle from the Air Force Western Test Range (AFWTR). Payload-class satellites include a variety of spacecraft equipped with specific instruments for various scientific and technological missions. These include communications satellites like Starlink; space stations such as the ISS; scientific satellites like the Hubble; Earth observation satellites from companies like Planet Labs, Umbra, and HawkEye 360; GPS; miniature CubeSats for education and research; and military/defense satellites.

Loading next visibility...
Identifier
69308, 2026-119N
Orbit
SSO
Country
Flag of USUS
Related business
Manufacturer
SpaceX/Seattle
Mission
Operational spacecraft
Bus & Motor
STARLINK V2MO, Unknown motor
Mass
575 kg wet, ~530 kg dry
Launch date (UTC)
2026-05-30 (2 months ago)
Launch vehicle
FALCON 9
Launch site
Air Force Western Test Range (AFWTR)
Object type
Payload
Rocket body
Debris
Shape & HBR
Unknown shape, 17.7 m
Radar Cross Section
Large (>1 m²)

Expand to show TLE details & history
Last TLE update: 16 hours ago

TLE from 16 hours ago
0 STARLINK-37689
1 69308U 26119N   26202.02738251  .00010396  00000-0  32380-3 0  9993
2 69308  97.2851 227.6534 0001591 108.0987 252.0429 15.33453236  9242
Epoch: 2026-07-21T00:39Z
TLE epoch observation values (Epoch: 2026-07-21T00:39:25.848Z)
Latitude
-0.00006°
Longitude
-81.00726°
Altitude
468.967 km
Speed
7.632 km/s
True Right ascension
15h 10m 36s
True Declination
0° 00' 00"
Sunlit
Object was in daylight at epoch
Visualization orbit readout
Latitude
Unknown
Longitude
Unknown
Altitude
Unknown
Speed
Unknown
Apparent Right ascension
Unknown
Apparent Declination
Unknown
Sunlit
N/A
Visualization observer readout
Local Sidereal Time
05:22:58
Azimuth
Unknown
Elevation
Unknown
Doppler factor
Unknown
Orbital elements
Apogee altitude
463.55 km
Perigee altitude
461.373 km
Semi-major axis
6,840.598 km
Eccentricity
0.00016
Inclination
97.2851°
RAAN
227.6534°
Arg. of periapsis
108.0987°
True anomaly
252.02556°
Mean anomaly
252.0429°
Eccentric anomaly
252.03423°
Mean motion
3.83621 °/min
Orbital period
93.84 mins
BSTAR
0.0003238
Loading maneuver chart data...
Computing Atmospheric mass density...
Loading historical data...
Loading historical data...
Loading historical data...
Loading historical data...
Loading historical data...
Loading historical data...
Loading historical data...

Documentation

Showing up to 5 results
|